TimeCST,TemperatureF,Dew PointF,Humidity,Sea Level PressureIn,VisibilityMPH,Wind Direction,Wind SpeedMPH,Gust SpeedMPH,PrecipitationIn,Events,Conditions,WindDirDegrees,DateUTC
12:15 AM,35.6,19.4,52,30.04,10.0,West,10.4,-,N/A,,Clear,260,2013-12-16 06:15:00
12:35 AM,35.6,17.6,48,30.04,10.0,WSW,8.1,-,N/A,,Clear,250,2013-12-16 06:35:00
12:55 AM,35.6,19.4,52,30.04,10.0,WSW,8.1,-,N/A,,Clear,250,2013-12-16 06:55:00
1:15 AM,35.6,19.4,52,30.03,10.0,WSW,9.2,-,N/A,,Clear,240,2013-12-16 07:15:00
1:35 AM,35.6,17.6,48,30.03,10.0,West,10.4,-,N/A,,Clear,260,2013-12-16 07:35:00
1:55 AM,35.6,17.6,48,30.03,10.0,West,9.2,-,N/A,,Clear,270,2013-12-16 07:55:00
2:15 AM,33.8,17.6,52,30.03,10.0,West,8.1,-,N/A,,Clear,270,2013-12-16 08:15:00
2:35 AM,33.8,17.6,52,30.04,10.0,West,10.4,-,N/A,,Clear,270,2013-12-16 08:35:00
2:55 AM,33.8,17.6,52,30.04,10.0,West,10.4,-,N/A,,Clear,260,2013-12-16 08:55:00
3:15 AM,33.8,17.6,52,30.03,10.0,West,9.2,-,N/A,,Clear,260,2013-12-16 09:15:00
3:35 AM,30.2,15.8,55,30.04,10.0,WSW,5.8,-,N/A,,Clear,240,2013-12-16 09:35:00
3:55 AM,28.4,15.8,59,30.03,10.0,WSW,5.8,-,N/A,,Clear,240,2013-12-16 09:55:00
4:15 AM,28.4,17.6,64,30.03,10.0,WSW,8.1,-,N/A,,Clear,240,2013-12-16 10:15:00
4:35 AM,28.4,17.6,64,30.03,10.0,West,5.8,-,N/A,,Clear,260,2013-12-16 10:35:00
4:55 AM,30.2,17.6,60,30.03,10.0,West,10.4,-,N/A,,Clear,270,2013-12-16 10:55:00
5:15 AM,30.2,17.6,60,30.03,10.0,WNW,4.6,-,N/A,,Clear,300,2013-12-16 11:15:00
5:35 AM,26.6,15.8,64,30.04,10.0,West,8.1,-,N/A,,Clear,270,2013-12-16 11:35:00
5:55 AM,26.6,15.8,64,30.04,10.0,West,5.8,-,N/A,,Clear,270,2013-12-16 11:55:00
6:15 AM,26.6,15.8,64,30.04,10.0,West,5.8,-,N/A,,Clear,260,2013-12-16 12:15:00
6:35 AM,26.6,15.8,64,30.05,10.0,WSW,8.1,-,N/A,,Clear,250,2013-12-16 12:35:00
6:55 AM,28.4,17.6,64,30.05,10.0,West,5.8,-,N/A,,Clear,260,2013-12-16 12:55:00
7:15 AM,26.6,15.8,64,30.06,10.0,West,6.9,-,N/A,,Clear,270,2013-12-16 13:15:00
7:35 AM,26.6,17.6,69,30.06,10.0,WSW,6.9,-,N/A,,Clear,250,2013-12-16 13:35:00
7:55 AM,26.6,17.6,69,30.06,10.0,West,8.1,-,N/A,,Clear,270,2013-12-16 13:55:00
8:15 AM,28.4,17.6,64,30.06,10.0,West,8.1,-,N/A,,Clear,260,2013-12-16 14:15:00
8:35 AM,33.8,21.2,60,30.07,10.0,West,9.2,-,N/A,,Clear,270,2013-12-16 14:35:00
8:55 AM,37.4,23.0,56,30.08,10.0,West,9.2,-,N/A,,Clear,260,2013-12-16 14:55:00
9:15 AM,41.0,23.0,49,30.08,10.0,West,8.1,-,N/A,,Clear,270,2013-12-16 15:15:00
9:35 AM,44.6,24.8,46,30.09,10.0,West,11.5,-,N/A,,Clear,280,2013-12-16 15:35:00
9:55 AM,46.4,24.8,43,30.10,10.0,WNW,10.4,-,N/A,,Clear,290,2013-12-16 15:55:00
10:15 AM,50.0,24.8,37,30.10,10.0,WNW,13.8,-,N/A,,Clear,290,2013-12-16 16:15:00
10:35 AM,53.6,23.0,30,30.10,10.0,WNW,16.1,-,N/A,,Clear,290,2013-12-16 16:35:00
10:55 AM,53.6,21.2,28,30.10,10.0,WNW,13.8,-,N/A,,Clear,290,2013-12-16 16:55:00
11:15 AM,55.4,21.2,26,30.10,10.0,WNW,18.4,-,N/A,,Clear,300,2013-12-16 17:15:00
11:35 AM,55.4,21.2,26,30.10,10.0,WNW,17.3,20.7,N/A,,Clear,300,2013-12-16 17:35:00
11:55 AM,55.4,21.2,26,30.09,10.0,NW,15.0,-,N/A,,Clear,320,2013-12-16 17:55:00
12:15 PM,57.2,23.0,27,30.08,10.0,NW,12.7,-,N/A,,Clear,310,2013-12-16 18:15:00
12:35 PM,57.2,23.0,27,30.07,10.0,NW,10.4,-,N/A,,Clear,320,2013-12-16 18:35:00
12:55 PM,59.0,23.0,25,30.07,10.0,NW,10.4,-,N/A,,Clear,320,2013-12-16 18:55:00
1:15 PM,59.0,23.0,25,30.06,10.0,WNW,11.5,-,N/A,,Clear,300,2013-12-16 19:15:00
1:35 PM,60.8,23.0,23,30.05,10.0,NW,9.2,-,N/A,,Clear,310,2013-12-16 19:35:00
1:55 PM,60.8,23.0,23,30.04,10.0,WNW,9.2,-,N/A,,Clear,290,2013-12-16 19:55:00
2:15 PM,60.8,24.8,25,30.04,10.0,NW,8.1,-,N/A,,Clear,310,2013-12-16 20:15:00
2:35 PM,62.6,23.0,22,30.04,10.0,WNW,11.5,-,N/A,,Clear,290,2013-12-16 20:35:00
2:55 PM,62.6,23.0,22,30.05,10.0,NW,10.4,-,N/A,,Clear,320,2013-12-16 20:55:00
3:15 PM,62.6,23.0,22,30.05,10.0,NW,6.9,-,N/A,,Clear,310,2013-12-16 21:15:00
3:35 PM,62.6,21.2,20,30.04,10.0,WNW,8.1,-,N/A,,Clear,290,2013-12-16 21:35:00
3:55 PM,62.6,21.2,20,30.05,10.0,NW,5.8,-,N/A,,Clear,310,2013-12-16 21:55:00
4:15 PM,62.6,21.2,20,30.05,10.0,NW,5.8,-,N/A,,Clear,320,2013-12-16 22:15:00
4:35 PM,60.8,21.2,22,30.06,10.0,NW,5.8,-,N/A,,Clear,310,2013-12-16 22:35:00
4:55 PM,57.2,21.2,25,30.07,10.0,NW,3.5,-,N/A,,Clear,310,2013-12-16 22:55:00
5:15 PM,53.6,19.4,26,30.08,10.0,NW,3.5,-,N/A,,Clear,310,2013-12-16 23:15:00
5:35 PM,51.8,21.2,30,30.08,10.0,Calm,Calm,-,N/A,,Clear,0,2013-12-16 23:35:00
5:55 PM,44.6,19.4,37,30.08,10.0,Calm,Calm,-,N/A,,Clear,0,2013-12-16 23:55:00
6:15 PM,44.6,19.4,37,30.08,10.0,West,4.6,-,N/A,,Clear,270,2013-12-17 00:15:00
6:35 PM,37.4,17.6,45,30.08,10.0,WSW,3.5,-,N/A,,Clear,250,2013-12-17 00:35:00
6:55 PM,37.4,17.6,45,30.09,10.0,WSW,5.8,-,N/A,,Clear,250,2013-12-17 00:55:00
7:15 PM,33.8,17.6,52,30.10,10.0,WSW,6.9,-,N/A,,Clear,240,2013-12-17 01:15:00
7:35 PM,35.6,17.6,48,30.10,10.0,WSW,5.8,-,N/A,,Clear,240,2013-12-17 01:35:00
7:55 PM,33.8,17.6,52,30.11,10.0,SW,6.9,-,N/A,,Clear,230,2013-12-17 01:55:00
8:15 PM,32.0,15.8,51,30.10,10.0,SW,4.6,-,N/A,,Clear,230,2013-12-17 02:15:00
8:35 PM,33.8,17.6,52,30.11,10.0,SW,6.9,-,N/A,,Clear,230,2013-12-17 02:35:00
8:55 PM,32.0,17.6,55,30.11,10.0,SW,3.5,-,N/A,,Clear,230,2013-12-17 02:55:00
9:15 PM,32.0,17.6,55,30.12,10.0,WSW,4.6,-,N/A,,Clear,240,2013-12-17 03:15:00
9:35 PM,30.2,17.6,60,30.12,10.0,West,3.5,-,N/A,,Clear,270,2013-12-17 03:35:00
9:55 PM,28.4,15.8,59,30.12,10.0,Calm,Calm,-,N/A,,Clear,0,2013-12-17 03:55:00
10:15 PM,30.2,17.6,60,30.12,10.0,WSW,6.9,-,N/A,,Clear,250,2013-12-17 04:15:00
10:35 PM,30.2,17.6,60,30.13,10.0,Calm,Calm,-,N/A,,Clear,0,2013-12-17 04:35:00
10:55 PM,28.4,15.8,59,30.13,10.0,Calm,Calm,-,N/A,,Clear,0,2013-12-17 04:55:00
11:15 PM,28.4,17.6,64,30.14,10.0,Calm,Calm,-,N/A,,Clear,0,2013-12-17 05:15:00
11:55 PM,30.2,17.6,60,30.14,10.0,West,5.8,-,N/A,,Clear,270,2013-12-17 05:55:00